This is the latest recevied weather packets stored in our database for station/object WA4OPQ-3. If no packets are shown the sender has not sent any weather packets the latest 1 day(s).
| Time | Temp. | Humidity | Pressure | Rain* | Wind** | Luminosity | Snow |
|---|---|---|---|---|---|---|---|
| 1778098905 | 12.22° C | 99% | 1012.6 hPa | 0 mm | - | 61 W/m² | - |
| 1778098300 | 12.22° C | 99% | 1012.9 hPa | 0 mm | - | 75 W/m² | - |
| 1778096486 | 12.22° C | 99% | 1013 hPa | 0 mm | - | 95 W/m² | - |
| 1778094669 | 11.67° C | 99% | 1012.4 hPa | 0 mm | - | 98 W/m² | - |
| 1778092239 | 12.22° C | 99% | 1012.8 hPa | 0 mm | - | 121 W/m² | - |
| 1778091633 | 12.22° C | 99% | 1012.8 hPa | 0 mm | - | 57 W/m² | - |
| 1778088592 | 12.22° C | 99% | 1012.9 hPa | 0.25 mm | - | 42 W/m² | - |
| 1778086778 | 12.22° C | 99% | 1012.6 hPa | 1.02 mm | - | 41 W/m² | - |
| 1778083133 | 12.22° C | 99% | 1012.6 hPa | 0.25 mm | - | 70 W/m² | - |
| 1778082529 | 12.22° C | 99% | 1011.9 hPa | 0 mm | - | 73 W/m² | - |
| 1778078898 | 12.22° C | 99% | 1012 hPa | 0 mm | - | 78 W/m² | - |
| 1778077688 | 12.22° C | 99% | 1012.1 hPa | 0 mm | - | 70 W/m² | - |
| 1778075874 | 12.22° C | 99% | 1011.3 hPa | 0 mm | - | 103 W/m² | - |
| 1778074059 | 12.22° C | 99% | 1010.4 hPa | 0 mm | - | 73 W/m² | - |
| 1778068009 | 12.22° C | 99% | 1010.9 hPa | 1.78 mm | - | 0 W/m² | - |
| 1778067403 | 12.78° C | 99% | 1010.2 hPa | 1.52 mm | - | 0 W/m² | - |
| 1778064377 | 13.89° C | 99% | 1008.4 hPa | 8.13 mm | - | 0 W/m² | - |
| 1778061354 | 16.11° C | 99% | 1009.2 hPa | 22.1 mm | - | 0 W/m² | - |
| 1778060748 | 16.11° C | 99% | 1008.4 hPa | 21.84 mm | - | 0 W/m² | - |
| 1778060143 | 16.67° C | 99% | 1008 hPa | 13.21 mm | - | 0 W/m² | - |
| 1778059538 | 18.33° C | 99% | 1007.4 hPa | 11.94 mm | - | 0 W/m² | - |
| 1778057723 | 18.89° C | 99% | 1007.1 hPa | 14.48 mm | - | 0 W/m² | - |
| 1778057118 | 18.89° C | 99% | 1007 hPa | 13.97 mm | - | 0 W/m² | - |
| 1778056513 | 18.89° C | 99% | 1006.2 hPa | 13.97 mm | - | 0 W/m² | - |
| 1778054093 | 19.44° C | 98% | 1005.8 hPa | 1.52 mm | - | 0 W/m² | - |
* Rain latest hour (hover to see other rain measurements)
** Current wind speed in m/s (hover to see current wind gust speed)